KO6TH-15 Weather Reports


time (UTC)temp
F
wind
direction
speed
knots
gust
knots
rain 1hr
in
rain 24hr
in
rain mn
in
humidity
%
barometer
mb
20260831232615 86 0 1.7 0.0 0.00 0.00 0.00 37
20260831231615 86 0 2.6 0.0 0.00 0.00 0.00 37
20260831230615 86 0 1.7 0.0 0.00 0.00 0.00 37
20260831225615 85 0 4.3 0.0 0.00 0.00 0.00 38
20260831224545 84 0 6.1 0.0 0.00 0.00 0.00 38
20260831223515 84 0 6.1 0.0 0.00 0.00 0.00 38
20260831222515 84 0 3.5 0.0 0.00 0.00 0.00 38
20260831221445 83 0 5.2 0.0 0.00 0.00 0.00 38
20260831220445 85 0 3.5 0.0 0.00 0.00 0.00 39
20260831215445 83 0 3.5 0.0 0.00 0.00 0.00 41
20260831214415 84 0 5.2 0.0 0.00 0.00 0.00 39
20260831213416 84 0 4.3 0.0 0.00 0.00 0.00 39
20260831212345 85 0 6.1 0.0 0.00 0.00 0.00 39
20260831211345 86 0 1.7 0.0 0.00 0.00 0.00 38
20260831210315 84 0 2.6 0.0 0.00 0.00 0.00 40
20260831205315 84 0 1.7 0.0 0.00 0.00 0.00 40
20260831204245 83 0 7.0 0.0 0.00 0.00 0.00 41
20260831203245 82 0 3.5 0.0 0.00 0.00 0.00 43
20260831202215 81 0 2.6 0.0 0.00 0.00 0.00 45
20260831201145 82 0 6.1 0.0 0.00 0.00 0.00 45
20260831200115 79 0 4.3 0.0 0.00 0.00 0.00 47
20260831195115 80 0 6.1 0.0 0.00 0.00 0.00 46
20260831194115 80 0 2.6 0.0 0.00 0.00 0.00 47
20260831193045 80 0 5.2 0.0 0.00 0.00 0.00 46
20260831192015 79 0 3.5 0.0 0.00 0.00 0.00 47
20260831190945 79 0 1.7 0.0 0.00 0.00 0.00 48
20260831185915 79 0 6.1 0.0 0.00 0.00 0.00 48
20260831184915 78 0 1.7 0.0 0.00 0.00 0.00 49
20260831183845 78 0 4.3 0.0 0.00 0.00 0.00 49
20260831182845 77 0 3.5 0.0 0.00 0.00 0.00 50
20260831181845 77 0 4.3 0.0 0.00 0.00 0.00 51
20260831180845 76 0 3.5 0.0 0.00 0.00 0.00 52
20260831175815 77 0 4.3 0.0 0.00 0.00 0.00 52
20260831174745 77 0 4.3 0.0 0.00 0.00 0.00 51
20260831173715 75 0 2.6 0.0 0.00 0.00 0.00 51
20260831172645 75 0 3.5 0.0 0.00 0.00 0.00 51
20260831171645 73 0 1.7 0.0 0.00 0.00 0.00 54
20260831170615 72 0 0.9 0.0 0.00 0.00 0.00 55
20260831165615 73 0 5.2 0.0 0.00 0.00 0.00 55
20260831164545 73 0 1.7 0.0 0.00 0.00 0.00 49
20260831163515 73 0 1.7 0.0 0.00 0.00 0.00 50
20260831162515 72 0 1.7 0.0 0.00 0.00 0.00 50
20260831161515 72 0 2.6 0.0 0.00 0.00 0.00 50
20260831160515 71 0 1.7 0.0 0.00 0.00 0.00 51
20260831155445 70 0 0.9 0.0 0.00 0.00 0.00 53
20260831154445 68 0 2.6 0.0 0.00 0.00 0.00 58
20260831153445 66 0 1.7 0.0 0.00 0.00 0.00 61
20260831152415 64 0 0.9 0.0 0.00 0.00 0.00 64
20260831151345 63 0 0.9 0.0 0.00 0.00 0.00 68
20260831150315 61 0 0.0 0.0 0.00 0.00 0.00 71
20260831145315 59 0 0.0 0.0 0.00 0.00 0.00 74
20260831144245 58 0 0.0 0.0 0.00 0.00 0.00 76
20260831143215 58 0 0.0 0.0 0.00 0.00 0.00 76
20260831142215 58 0 0.0 0.0 0.00 0.00 0.00 74
20260831141215 57 0 0.9 0.0 0.00 0.00 0.00 73
20260831140145 57 0 0.0 0.0 0.00 0.00 0.00 73
20260831135145 57 0 1.7 0.0 0.00 0.00 0.00 73
20260831134115 57 0 0.9 0.0 0.00 0.00 0.00 74
20260831133115 54 0 0.9 0.0 0.00 0.00 0.00 82
20260831132045 54 0 0.0 0.0 0.00 0.00 0.00 80
20260831131045 54 0 0.0 0.0 0.00 0.00 0.00 80
20260831130045 55 0 0.0 0.0 0.00 0.00 0.00 79
20260831125015 55 0 0.9 0.0 0.00 0.00 0.00 79
20260831124015 54 0 0.0 0.0 0.00 0.00 0.00 80
20260831123015 54 0 0.0 0.0 0.00 0.00 0.00 80
20260831121945 55 0 0.0 0.0 0.00 0.00 0.00 79
20260831120945 55 0 1.7 0.0 0.00 0.00 0.00 80
20260831115945 54 0 0.0 0.0 0.00 0.00 0.00 81
20260831114945 54 0 0.0 0.0 0.00 0.00 0.00 81
20260831113945 55 0 0.0 0.0 0.00 0.00 0.00 80
20260831112945 55 0 0.0 0.0 0.00 0.00 0.00 78
20260831111915 55 0 0.0 0.0 0.00 0.00 0.00 78
20260831110845 55 0 0.0 0.0 0.00 0.00 0.00 79
20260831105845 55 0 0.0 0.0 0.00 0.00 0.00 78
20260831104845 55 0 0.0 0.0 0.00 0.00 0.00 78
20260831103815 55 0 0.9 0.0 0.00 0.00 0.00 78
20260831102745 55 0 0.0 0.0 0.00 0.00 0.00 77
20260831101745 55 0 0.0 0.0 0.00 0.00 0.00 78
20260831100715 55 0 0.0 0.0 0.00 0.00 0.00 77
20260831095715 56 0 0.0 0.0 0.00 0.00 0.00 77
20260831094645 56 0 0.0 0.0 0.00 0.00 0.00 77
20260831093645 56 0 0.0 0.0 0.00 0.00 0.00 77
20260831092645 56 0 0.0 0.0 0.00 0.00 0.00 77
20260831091615 56 0 0.0 0.0 0.00 0.00 0.00 77
20260831090615 57 0 0.0 0.0 0.00 0.00 0.00 76
20260831085545 57 0 0.0 0.0 0.00 0.00 0.00 75
20260831084515 57 0 0.0 0.0 0.00 0.00 0.00 75
20260831083445 57 0 0.0 0.0 0.00 0.00 0.00 74
20260831082445 57 0 0.0 0.0 0.00 0.00 0.00 75
20260831081445 58 0 0.0 0.0 0.00 0.00 0.00 74
20260831080415 58 0 0.0 0.0 0.00 0.00 0.00 74
20260831075415 58 0 0.0 0.0 0.00 0.00 0.00 72
20260831074415 59 0 0.0 0.0 0.00 0.00 0.00 73
20260831073415 59 0 0.0 0.0 0.00 0.00 0.00 71
20260831072345 59 0 0.0 0.0 0.00 0.00 0.00 71
20260831071345 60 0 0.0 0.0 0.00 0.00 0.00 71
20260831070315 60 0 0.0 0.0 0.00 0.00 0.00 70
20260831065315 61 0 0.0 0.0 0.00 0.00 0.00 70
20260831064245 61 0 0.0 0.0 0.00 0.00 0.00 71
20260831063215 61 0 0.0 0.0 0.00 0.00 0.00 68
20260831062215 62 0 0.0 0.0 0.00 0.00 0.00 69
20260831061145 62 0 0.0 0.0 0.00 0.00 0.00 70
20260831060115 62 0 0.0 0.0 0.00 0.00 0.00 71
20260831055045 62 0 0.0 0.0 0.00 0.00 0.00 70
20260831054045 63 0 0.0 0.0 0.00 0.00 0.00 69
20260831053015 63 0 0.0 0.0 0.00 0.00 0.00 68
20260831052015 64 0 0.0 0.0 0.00 0.00 0.00 69
20260831050945 64 0 0.0 0.0 0.00 0.00 0.00 68
20260831045915 65 0 0.0 0.0 0.00 0.00 0.00 66
20260831044845 65 0 0.0 0.0 0.00 0.00 0.00 66
20260831043845 66 0 0.0 0.0 0.00 0.00 0.00 65
20260831042815 66 0 0.0 0.0 0.00 0.00 0.00 63
20260831041745 67 0 0.0 0.0 0.00 0.00 0.00 62
20260831040715 68 0 0.0 0.0 0.00 0.00 0.00 59
20260831035645 69 0 0.0 0.0 0.00 0.00 0.00 58
20260831034645 70 0 0.0 0.0 0.00 0.00 0.00 56
20260831033615 71 0 0.0 0.0 0.00 0.00 0.00 55
20260831032545 72 0 0.0 0.0 0.00 0.00 0.00 53
20260831031515 73 0 0.0 0.0 0.00 0.00 0.00 51
20260831030445 75 0 0.0 0.0 0.00 0.00 0.00 50
20260831025445 76 0 0.0 0.0 0.00 0.00 0.00 47
20260831024445 78 0 0.0 0.0 0.00 0.00 0.00 43
20260831023446 79 0 0.0 0.0 0.00 0.00 0.00 42
20260831022445 81 0 0.0 0.0 0.00 0.00 0.00 40
20260831021415 82 0 0.0 0.0 0.00 0.00 0.00 37
20260831020345 84 0 0.9 0.0 0.00 0.00 0.00 35
20260831015345 84 0 0.9 0.0 0.00 0.00 0.00 32
20260831014315 85 0 2.6 0.0 0.00 0.00 0.00 32
20260831013315 86 0 0.9 0.0 0.00 0.00 0.00 31
20260831012245 86 0 0.9 0.0 0.00 0.00 0.00 30
20260831011215 87 0 1.7 0.0 0.00 0.00 0.00 30
20260831010215 88 0 1.7 0.0 0.00 0.00 0.00 30
20260831005215 89 0 0.9 0.0 0.00 0.00 0.00 29
20260831004145 89 0 2.6 0.0 0.00 0.00 0.00 29
20260831003145 90 0 4.3 0.0 0.00 0.00 0.00 28
20260831002145 91 0 1.7 0.0 0.00 0.00 0.00 27
20260831001115 94 0 0.9 0.0 0.00 0.00 0.00 27
20260831000045 95 0 0.9 0.0 0.00 0.00 0.00 26
20260830235015 96 0 3.5 0.0 0.00 0.00 0.00 26
20260830233945 97 0 1.7 0.0 0.00 0.00 0.00 25